STARLINK-35609, 66100

Orbit data source: Space-Track

STARLINK-35609, 66100 is a payload satellite owned by SpaceX/Seattle (US) in LEO that was launched on Sun, 19 Oct 2025 UTC via an FALCON 9 launch vehicle from the Air Force Western Test Range (AFWTR). Payload-class satellites include a variety of spacecraft equipped with specific instruments for various scientific and technological missions. These include communications satellites like Starlink; space stations such as the ISS; scientific satellites like the Hubble; Earth observation satellites from companies like Planet Labs, Umbra, and HawkEye 360; GPS; miniature CubeSats for education and research; and military/defense satellites.

Loading next visibility...
Identifier
66100, 2025-236Q
Orbit
LEO
Country
Flag of USUS
Related business
Manufacturer
SpaceX/Seattle
Mission
Operational Commercial Communications
Bus & Motor
STARLINK V2MO, Unknown motor
Mass
575 kg wet, ~530 kg dry
Launch date (UTC)
2025-10-19 (8 months ago)
Launch vehicle
FALCON 9
Launch site
Air Force Western Test Range (AFWTR)
Object type
Payload
Rocket body
Debris
Shape & HBR
Box + 2 Pan, 17.7 m
Radar Cross Section
36.964 m², Large (>1 m²)

Expand to show TLE details & history
Last TLE update: 23 hours ago

TLE from 23 hours ago
0 STARLINK-35609
1 66100U 25236Q   26170.91152010  .00021881  00000-0  65670-3 0  9993
2 66100  53.1594 348.4697 0001080  81.4100 278.7025 15.34406297 38548
Epoch: 2026-06-19T21:52Z
TLE epoch observation values (Epoch: 2026-06-19T21:52:35.336Z)
Latitude
-0.00002°
Longitude
112.18875°
Altitude
463.474 km
Speed
7.636 km/s
True Right ascension
23h 13m 52s
True Declination
0° 00' 00"
Sunlit
Object was in daylight at epoch
Visualization orbit readout
Latitude
Unknown
Longitude
Unknown
Altitude
Unknown
Speed
Unknown
Apparent Right ascension
Unknown
Apparent Declination
Unknown
Sunlit
N/A
Visualization observer readout
Local Sidereal Time
07:24:00
Azimuth
Unknown
Elevation
Unknown
Doppler factor
Unknown
Orbital elements
Apogee altitude
463.68 km
Perigee altitude
462.203 km
Semi-major axis
6,841.079 km
Eccentricity
0.00011
Inclination
53.1594°
RAAN
348.4697°
Arg. of periapsis
81.41°
True anomaly
278.69027°
Mean anomaly
278.7025°
Eccentric anomaly
278.69638°
Mean motion
3.8358 °/min
Orbital period
93.85 mins
BSTAR
0.0006567
Loading maneuver chart data...
Computing Atmospheric mass density...
Loading historical data...
Loading historical data...
Loading historical data...
Loading historical data...
Loading historical data...
Loading historical data...
Loading historical data...

Documentation

Showing up to 5 results
|